GW1636 Weather Reports


time (UTC)temp
C
wind
direction
speed
KPH
gust
KPH
rain 1hr
cm
rain 24hr
cm
rain mn
cm
humidity
%
barometer
mb
20260906100901 23 328 3.2 3.2 0.00 0.00 0.00 87 1016.9
20260906100400 23 321 0.0 3.2 0.00 0.00 0.00 86 1016.8
20260906095855 25 341 0.0 4.8 0.00 0.00 0.00 83 1017.0
20260906095350 25 323 1.6 4.8 0.00 0.00 0.00 80 1017.0
20260906094850 25 327 1.6 3.2 0.00 0.00 0.00 80 1016.7
20260906094345 25 306 1.6 8.0 0.00 0.00 0.00 80 1016.4
20260906093841 25 312 1.6 1.6 0.00 0.00 0.00 82 1016.5
20260906093336 25 313 1.6 1.6 0.00 0.00 0.00 81 1016.2
20260906092826 25 332 3.2 4.8 0.00 0.00 0.00 82 1016.5
20260906092325 25 316 1.6 3.2 0.00 0.00 0.00 83 1016.4
20260906091821 25 305 3.2 8.0 0.00 0.00 0.00 84 1016.3
20260906091317 25 355 3.2 8.0 0.00 0.00 0.00 86 1016.3
20260906090814 25 314 1.6 4.8 0.00 0.00 0.00 88 1016.4
20260906090312 25 313 0.0 1.6 0.00 0.00 0.00 89 1016.2
20260906085812 25 332 1.6 1.6 0.00 0.00 0.00 90 1016.3
20260906085307 25 308 0.0 4.8 0.00 0.00 0.00 91 1016.3
20260906084801 25 335 0.0 1.6 0.00 0.00 0.00 92 1016.2
20260906084300 25 338 0.0 3.2 0.00 0.00 0.00 93 1016.3
20260906083755 25 349 3.2 3.2 0.00 0.00 0.00 93 1016.5
20260906083251 25 315 1.6 3.2 0.00 0.00 0.00 93 1016.6
20260906082745 25 279 0.0 3.2 0.00 0.00 0.00 93 1016.6
20260906082240 25 311 0.0 1.6 0.00 0.00 0.00 93 1016.7
20260906081736 25 333 3.2 3.2 0.00 0.00 0.00 93 1016.8
20260906081231 25 303 0.0 1.6 0.00 0.00 0.00 92 1016.7
20260906080727 25 302 0.0 0.0 0.00 0.00 0.00 92 1017.0
20260906080224 25 311 1.6 3.2 0.00 0.00 0.00 92 1017.0
20260906075718 25 291 0.0 1.6 0.00 0.00 0.00 93 1017.1
20260906075212 25 337 1.6 1.6 0.00 0.00 0.00 93 1017.0
20260906074707 25 2 0.0 4.8 0.00 0.00 0.00 93 1016.7
20260906074207 25 284 0.0 0.0 0.00 0.00 0.00 93 1016.6
20260906073702 25 308 1.6 1.6 0.00 0.00 0.00 93 1016.6
20260906073157 25 304 0.0 3.2 0.00 0.00 0.00 93 1016.7
20260906072652 25 306 0.0 3.2 0.00 0.00 0.00 93 1016.7
20260906072148 25 298 0.0 0.0 0.00 0.00 0.00 94 1016.4
20260906071644 25 300 0.0 0.0 0.00 0.00 0.00 94 1016.5
20260906071143 25 298 0.0 0.0 0.00 0.00 0.00 94 1016.8
20260906070640 25 298 0.0 0.0 0.00 0.00 0.00 94 1016.7
20260906070136 25 298 0.0 0.0 0.00 0.00 0.00 94 1016.6
20260906065635 25 294 0.0 0.0 0.00 0.00 0.00 94 1016.6
20260906065131 25 294 0.0 0.0 0.00 0.00 0.00 94 1016.9
20260906064626 25 287 0.0 0.0 0.00 0.00 0.00 93 1016.7
20260906064121 25 287 0.0 0.0 0.00 0.00 0.00 94 1016.6
20260906063616 25 295 0.0 0.0 0.00 0.00 0.00 93 1016.7
20260906063112 25 295 0.0 1.6 0.00 0.00 0.00 93 1017.1
20260906062608 25 291 0.0 0.0 0.00 0.00 0.00 93 1017.1
20260906062106 25 282 0.0 1.6 0.00 0.00 0.00 93 1016.9
20260906061603 25 282 1.6 1.6 0.00 0.00 0.00 93 1017.1
20260906061102 25 305 0.0 1.6 0.00 0.00 0.00 93 1017.0
20260906060559 25 306 0.0 0.0 0.00 0.00 0.00 93 1017.4
20260906060056 25 305 0.0 0.0 0.00 0.00 0.00 93 1017.2
20260906055551 25 303 0.0 0.0 0.00 0.00 0.00 93 1017.4
20260906055046 25 303 0.0 0.0 0.00 0.00 0.00 93 1017.2
20260906054541 25 303 0.0 0.0 0.00 0.00 0.00 93 1017.3
20260906054036 25 303 0.0 0.0 0.00 0.00 0.00 93 1017.4
20260906053533 25 303 0.0 0.0 0.00 0.00 0.00 93 1017.3
20260906053028 25 303 0.0 0.0 0.00 0.00 0.00 92 1017.2
20260906052524 25 303 0.0 0.0 0.00 0.00 0.00 92 1017.5
20260906052021 25 303 0.0 0.0 0.00 0.00 0.00 92 1017.4
20260906051516 25 303 0.0 0.0 0.00 0.00 0.00 92 1017.3
20260906051011 25 305 0.0 0.0 0.00 0.00 0.00 91 1017.1
20260906050512 25 317 0.0 0.0 0.00 0.00 0.00 91 1017.2
20260906050006 25 318 0.0 0.0 0.00 0.00 0.00 91 1017.3
20260906045504 25 318 0.0 0.0 0.00 0.00 0.00 90 1017.3
20260906045000 25 317 0.0 0.0 0.00 0.00 0.00 90 1017.3
20260906044455 26 327 0.0 0.0 0.00 0.00 0.00 89 1017.6
20260906043951 26 340 3.2 3.2 0.00 0.00 0.00 89 1017.3
20260906043447 26 283 0.0 3.2 0.00 0.00 0.00 89 1017.1
20260906042943 26 280 1.6 1.6 0.00 0.00 0.00 88 1017.1
20260906042441 26 283 0.0 1.6 0.00 0.00 0.00 88 1017.2
20260906041936 26 289 0.0 0.0 0.00 0.00 0.00 88 1017.3
20260906041433 26 295 0.0 1.6 0.00 0.00 0.00 87 1017.2
20260906040932 26 293 0.0 0.0 0.00 0.00 0.00 87 1017.3
20260906040427 26 300 0.0 0.0 0.00 0.00 0.00 87 1017.3
20260906035922 26 298 0.0 1.6 0.00 0.00 0.00 86 1017.3
20260906035418 26 304 0.0 0.0 0.00 0.00 0.00 87 1017.0
20260906034913 26 296 0.0 0.0 0.00 0.00 0.00 86 1017.3
20260906034413 26 296 0.0 1.6 0.00 0.00 0.00 86 1017.3
20260906033909 26 296 0.0 1.6 0.00 0.00 0.00 86 1017.3
20260906033409 26 289 0.0 0.0 0.00 0.00 0.00 86 1017.4
20260906032904 26 296 1.6 1.6 0.00 0.00 0.00 86 1017.2
20260906032401 26 283 1.6 3.2 0.00 0.00 0.00 86 1017.1
20260906031855 26 290 0.0 1.6 0.00 0.00 0.00 86 1017.2
20260906031350 26 312 0.0 1.6 0.00 0.00 0.00 86 1017.0
20260906030845 26 284 0.0 3.2 0.00 0.00 0.00 85 1017.2
20260906030340 26 284 0.0 0.0 0.00 0.00 0.00 85 1017.0
20260906025835 26 279 0.0 1.6 0.00 0.00 0.00 86 1017.0
20260906025329 26 291 0.0 1.6 0.00 0.00 0.00 86 1017.0
20260906024828 26 279 0.0 3.2 0.00 0.00 0.00 86 1017.1
20260906024327 26 279 0.0 1.6 0.00 0.00 0.00 85 1017.1
20260906023823 26 276 0.0 1.6 0.00 0.00 0.00 85 1017.1
20260906023318 26 275 0.0 1.6 0.00 0.00 0.00 85 1017.2
20260906022814 26 275 0.0 1.6 0.00 0.00 0.00 85 1017.1
20260906022309 26 274 1.6 3.2 0.00 0.00 0.00 85 1017.1
20260906021805 27 276 0.0 0.0 0.00 0.00 0.00 85 1017.1
20260906021304 27 269 1.6 1.6 0.00 0.00 0.00 85 1017.0
20260906020758 27 274 0.0 4.8 0.00 0.00 0.00 85 1017.0
20260906020253 27 301 0.0 1.6 0.00 0.00 0.00 84 1017.0
20260906015752 27 285 0.0 0.0 0.00 0.00 0.00 85 1016.8
20260906015251 27 272 0.0 1.6 0.00 0.00 0.00 85 1016.8
20260906014746 27 277 0.0 1.6 0.00 0.00 0.00 84 1016.6
20260906014242 27 276 0.0 1.6 0.00 0.00 0.00 84 1016.6
20260906013738 27 233 4.8 4.8 0.00 0.00 0.00 84 1016.5
20260906013237 27 289 0.0 1.6 0.00 0.00 0.00 83 1016.2
20260906012733 27 284 0.0 0.0 0.00 0.00 0.00 83 1016.3
20260906012227 27 285 0.0 1.6 0.00 0.00 0.00 83 1016.2
20260906011722 27 287 0.0 4.8 0.00 0.00 0.00 83 1016.0
20260906011217 27 286 0.0 1.6 0.00 0.00 0.00 83 1016.0
20260906010713 27 275 1.6 4.8 0.00 0.00 0.00 83 1016.0
20260906010209 27 291 0.0 1.6 0.00 0.00 0.00 83 1015.8
20260906005708 27 323 3.2 3.2 0.00 0.00 0.00 83 1015.8
20260906005203 27 287 0.0 3.2 0.00 0.00 0.00 83 1015.6
20260906004701 28 308 0.0 0.0 0.00 0.00 0.00 83 1015.7
20260906004156 28 286 1.6 3.2 0.00 0.00 0.00 82 1015.8
20260906003652 28 289 0.0 3.2 0.00 0.00 0.00 82 1015.8
20260906003147 28 302 1.6 1.6 0.00 0.00 0.00 82 1015.7
20260906002642 28 292 0.0 1.6 0.00 0.00 0.00 82 1015.8
20260906002137 28 284 0.0 1.6 0.00 0.00 0.00 81 1015.7
20260906001632 28 294 0.0 0.0 0.00 0.00 0.00 81 1015.9
20260906001132 28 253 0.0 1.6 0.00 0.00 0.00 80 1015.8
20260906000628 28 288 0.0 1.6 0.00 0.00 0.00 80 1016.0
20260906000123 28 279 0.0 1.6 0.00 0.00 0.00 80 1015.9
20260905235622 28 275 1.6 3.2 0.00 0.00 0.00 79 1016.0
20260905235117 28 293 1.6 3.2 0.00 0.00 0.00 79 1016.0
20260905234612 29 263 0.0 4.8 0.00 0.00 0.00 79 1016.0
20260905234108 29 289 0.0 3.2 0.00 0.00 0.00 78 1016.0
20260905233602 29 290 0.0 1.6 0.00 0.00 0.00 78 1015.9
20260905233056 29 308 0.0 3.2 0.00 0.00 0.00 78 1015.9
20260905232552 30 300 1.6 3.2 0.00 0.00 0.00 77 1015.8
20260905232048 30 292 3.2 4.8 0.00 0.00 0.00 76 1015.7
20260905231543 30 250 1.6 9.7 0.00 0.00 0.00 76 1015.8
20260905231039 30 290 1.6 4.8 0.00 0.00 0.00 75 1015.7
20260905230538 30 287 1.6 4.8 0.00 0.00 0.00 74 1015.9
20260905230037 30 287 4.8 8.0 0.00 0.00 0.00 74 1015.7
20260905225531 30 113 6.4 12.9 0.00 0.00 0.00 74 1015.9
20260905225026 30 276 1.6 4.8 0.00 0.00 0.00 73 1015.8
20260905224521 31 286 1.6 3.2 0.00 0.00 0.00 73 1016.0
20260905224021 31 288 3.2 3.2 0.00 0.00 0.00 73 1016.1
20260905223518 31 325 4.8 4.8 0.00 0.00 0.00 69 1015.9
20260905223013 32 310 3.2 4.8 0.00 0.00 0.00 68 1015.8
20260905222508 32 341 1.6 9.7 0.00 0.00 0.00 66 1015.9
20260905222003 32 294 0.0 1.6 0.00 0.00 0.00 65 1015.7
20260905221500 32 301 0.0 0.0 0.00 0.00 0.00 64 1015.7
20260905220955 33 266 1.6 1.6 0.00 0.00 0.00 63 1015.6
20260905220451 33 296 0.0 8.0 0.00 0.00 0.00 62 1015.5
20260905215950 33 316 1.6 4.8 0.00 0.00 0.00 58 1015.5
20260905215446 33 290 0.0 1.6 0.00 0.00 0.00 54 1015.4
20260905214942 33 294 0.0 3.2 0.00 0.00 0.00 54 1015.4
20260905214437 34 261 1.6 3.2 0.00 0.00 0.00 54 1015.4
20260905213932 34 275 0.0 1.6 0.00 0.00 0.00 54 1015.4
20260905213428 34 247 3.2 8.0 0.00 0.00 0.00 54 1015.5
20260905212923 35 237 4.8 8.0 0.00 0.00 0.00 52 1015.6
20260905212418 36 240 3.2 3.2 0.00 0.00 0.00 45 1015.6
20260905211917 36 263 3.2 8.0 0.00 0.00 0.00 44 1015.4
20260905211412 35 194 3.2 4.8 0.00 0.00 0.00 45 1015.6
20260905210908 35 315 1.6 3.2 0.00 0.00 0.00 45 1015.6
20260905210403 35 318 0.0 1.6 0.00 0.00 0.00 44 1015.7
20260905205903 35 318 1.6 3.2 0.00 0.00 0.00 44 1015.6
20260905205357 35 16 1.6 3.2 0.00 0.00 0.00 45 1015.7
20260905204856 36 283 0.0 1.6 0.00 0.00 0.00 46 1015.6
20260905204353 35 271 0.0 3.2 0.00 0.00 0.00 46 1015.8
20260905203851 35 258 1.6 4.8 0.00 0.00 0.00 46 1015.9
20260905203347 35 233 1.6 3.2 0.00 0.00 0.00 47 1016.0
20260905202842 35 228 3.2 3.2 0.00 0.00 0.00 46 1016.0
20260905202337 35 271 1.6 8.0 0.00 0.00 0.00 47 1016.1
20260905201833 36 9 3.2 3.2 0.00 0.00 0.00 45 1016.0
20260905201328 36 354 4.8 4.8 0.00 0.00 0.00 47 1016.1
20260905200822 35 324 1.6 8.0 0.00 0.00 0.00 48 1016.1
20260905200319 35 314 1.6 4.8 0.00 0.00 0.00 47 1016.3
20260905195816 35 285 1.6 1.6 0.00 0.00 0.00 47 1016.2
20260905195311 34 322 1.6 3.2 0.00 0.00 0.00 49 1016.2
20260905194808 35 319 1.6 4.8 0.00 0.00 0.00 49 1016.3
20260905194307 35 330 1.6 4.8 0.00 0.00 0.00 49 1016.1
20260905193806 35 344 1.6 4.8 0.00 0.00 0.00 47 1016.5
20260905193301 35 307 0.0 1.6 0.00 0.00 0.00 47 1016.3
20260905192756 36 318 0.0 1.6 0.00 0.00 0.00 46 1016.3
20260905192253 35 278 1.6 4.8 0.00 0.00 0.00 46 1016.6
20260905191751 36 322 1.6 3.2 0.00 0.00 0.00 46 1016.5
20260905191250 35 355 1.6 3.2 0.00 0.00 0.00 48 1016.5
20260905190748 35 83 3.2 3.2 0.00 0.00 0.00 48 1016.7
20260905190243 35 293 0.0 1.6 0.00 0.00 0.00 48 1016.9
20260905185742 35 306 1.6 4.8 0.00 0.00 0.00 48 1016.8
20260905185237 35 358 3.2 4.8 0.00 0.00 0.00 46 1016.9
20260905184731 35 331 3.2 3.2 0.00 0.00 0.00 47 1017.2
20260905184230 35 331 3.2 3.2 0.00 0.00 0.00 47 1017.1
20260905183729 35 311 1.6 3.2 0.00 0.00 0.00 47 1017.4
20260905183225 35 21 3.2 3.2 0.00 0.00 0.00 49 1017.3
20260905182725 35 77 1.6 3.2 0.00 0.00 0.00 48 1017.5
20260905182224 35 315 1.6 4.8 0.00 0.00 0.00 50 1017.6
20260905181720 33 299 0.0 4.8 0.00 0.00 0.00 51 1017.7
20260905181218 33 319 1.6 1.6 0.00 0.00 0.00 51 1017.8
20260905180713 35 318 0.0 3.2 0.00 0.00 0.00 50 1017.8
20260905180209 34 333 4.8 8.0 0.00 0.00 0.00 50 1018.0
20260905175709 33 68 1.6 3.2 0.00 0.00 0.00 51 1018.0
20260905175203 35 20 3.2 3.2 0.00 0.00 0.00 49 1018.0
20260905174659 35 327 1.6 3.2 0.00 0.00 0.00 48 1018.2
20260905174154 35 19 1.6 4.8 0.00 0.00 0.00 47 1018.2
20260905173650 35 344 3.2 3.2 0.00 0.00 0.00 48 1018.1
20260905173146 35 309 1.6 3.2 0.00 0.00 0.00 47 1018.3
20260905172645 35 325 0.0 4.8 0.00 0.00 0.00 46 1018.4
20260905172139 35 279 0.0 3.2 0.00 0.00 0.00 48 1018.3
20260905171635 35 319 0.0 1.6 0.00 0.00 0.00 49 1018.6
20260905171131 33 293 6.4 8.0 0.00 0.00 0.00 54 1018.3
20260905170628 33 316 0.0 3.2 0.00 0.00 0.00 56 1018.4
20260905170123 33 329 1.6 3.2 0.00 0.00 0.00 54 1018.7
20260905165617 35 299 1.6 1.6 0.00 0.00 0.00 53 1018.6
20260905165113 35 206 3.2 3.2 0.00 0.00 0.00 51 1018.7
20260905164607 34 301 0.0 4.8 0.00 0.00 0.00 53 1018.8
20260905164101 34 300 0.0 1.6 0.00 0.00 0.00 54 1019.0
20260905163552 35 305 0.0 3.2 0.00 0.00 0.00 54 1018.9
20260905163048 34 309 0.0 4.8 0.00 0.00 0.00 54 1019.0
20260905162544 34 332 0.0 3.2 0.00 0.00 0.00 54 1019.0
20260905162043 33 272 1.6 3.2 0.00 0.00 0.00 54 1018.9
20260905161543 33 303 3.2 4.8 0.00 0.00 0.00 57 1019.3
20260905161041 33 2 1.6 4.8 0.00 0.00 0.00 57 1019.1
20260905160540 33 298 3.2 3.2 0.00 0.00 0.00 57 1019.1
20260905160034 33 12 1.6 4.8 0.00 0.00 0.00 57 1018.8
20260905155534 33 323 0.0 4.8 0.00 0.00 0.00 59 1019.1
20260905155033 33 318 4.8 9.7 0.00 0.00 0.00 59 1019.1
20260905154528 33 344 0.0 3.2 0.00 0.00 0.00 58 1019.0
20260905154024 32 336 1.6 4.8 0.00 0.00 0.00 60 1019.1
20260905153520 32 321 0.0 1.6 0.00 0.00 0.00 60 1019.1
20260905153020 33 315 0.0 4.8 0.00 0.00 0.00 60 1019.1
20260905152519 32 326 3.2 3.2 0.00 0.00 0.00 61 1019.2
20260905152015 32 323 1.6 1.6 0.00 0.00 0.00 62 1019.1
20260905151510 32 324 0.0 3.2 0.00 0.00 0.00 63 1019.2
20260905151005 32 342 1.6 3.2 0.00 0.00 0.00 63 1019.0
20260905150500 31 350 0.0 1.6 0.00 0.00 0.00 64 1019.1
20260905145956 31 321 0.0 3.2 0.00 0.00 0.00 67 1019.1
20260905145451 31 319 0.0 3.2 0.00 0.00 0.00 66 1018.9
20260905144950 30 320 1.6 3.2 0.00 0.00 0.00 68 1019.0
20260905144446 30 309 1.6 8.0 0.00 0.00 0.00 68 1019.2
20260905143945 30 314 1.6 8.0 0.00 0.00 0.00 70 1019.2
20260905143444 30 340 3.2 4.8 0.00 0.00 0.00 70 1019.2
20260905142939 30 325 0.0 1.6 0.00 0.00 0.00 71 1019.2
20260905142438 30 324 0.0 1.6 0.00 0.00 0.00 71 1019.3
20260905141933 30 324 0.0 1.6 0.00 0.00 0.00 73 1019.3
20260905141428 29 335 0.0 0.0 0.00 0.00 0.00 74 1019.2
20260905140925 29 319 1.6 4.8 0.00 0.00 0.00 74 1019.1
20260905140420 28 326 4.8 4.8 0.00 0.00 0.00 74 1019.2
20260905135918 28 343 4.8 4.8 0.00 0.00 0.00 76 1019.2
20260905135414 28 325 0.0 1.6 0.00 0.00 0.00 77 1019.1
20260905134909 28 335 0.0 4.8 0.00 0.00 0.00 78 1019.2
20260905134408 27 333 0.0 1.6 0.00 0.00 0.00 80 1019.1
20260905133903 27 346 1.6 3.2 0.00 0.00 0.00 80 1019.3
20260905133358 27 321 1.6 3.2 0.00 0.00 0.00 81 1019.2
20260905132857 27 328 1.6 3.2 0.00 0.00 0.00 81 1019.1
20260905132352 27 317 0.0 1.6 0.00 0.00 0.00 82 1019.2
20260905131846 27 318 1.6 3.2 0.00 0.00 0.00 83 1019.1
20260905131342 26 321 0.0 1.6 0.00 0.00 0.00 84 1019.3
20260905130837 26 306 0.0 0.0 0.00 0.00 0.00 85 1019.3
20260905130336 26 316 0.0 0.0 0.00 0.00 0.00 86 1019.5
20260905125831 26 316 0.0 0.0 0.00 0.00 0.00 87 1019.2
20260905125326 26 309 0.0 0.0 0.00 0.00 0.00 88 1019.4
20260905124822 25 317 0.0 0.0 0.00 0.00 0.00 88 1019.3
20260905124319 25 317 0.0 1.6 0.00 0.00 0.00 88 1019.3
20260905123813 25 323 1.6 1.6 0.00 0.00 0.00 89 1019.3
20260905123310 25 322 1.6 3.2 0.00 0.00 0.00 89 1019.1
20260905122809 25 316 0.0 1.6 0.00 0.00 0.00 90 1019.3
20260905122309 25 313 0.0 1.6 0.00 0.00 0.00 90 1019.1
20260905121805 25 314 0.0 1.6 0.00 0.00 0.00 91 1019.0
20260905121301 24 314 1.6 1.6 0.00 0.00 0.00 91 1019.1
20260905120759 24 314 0.0 0.0 0.00 0.00 0.00 92 1019.1
20260905120254 24 310 1.6 1.6 0.00 0.00 0.00 92 1019.0
20260905115749 24 308 0.0 0.0 0.00 0.00 0.00 92 1018.9
20260905115249 23 308 0.0 1.6 0.00 0.00 0.00 92 1019.0
20260905114748 23 303 0.0 0.0 0.00 0.00 0.00 92 1018.8
20260905114247 23 303 0.0 0.0 0.00 0.00 0.00 92 1019.1
20260905113746 23 303 0.0 0.0 0.00 0.00 0.00 92 1018.9
20260905113243 23 303 0.0 0.0 0.00 0.00 0.00 92 1018.9
20260905112737 24 303 0.0 0.0 0.00 0.00 0.00 92 1018.8
20260905112232 24 303 0.0 0.0 0.00 0.00 0.00 91 1018.9
20260905111727 24 298 0.0 0.0 0.00 0.00 0.00 91 1018.7
20260905111221 24 298 0.0 1.6 0.00 0.00 0.00 91 1018.8
20260905110720 24 307 0.0 1.6 0.00 0.00 0.00 91 1018.8
20260905110215 24 301 3.2 3.2 0.00 0.00 0.00 91 1018.8
20260905105711 24 312 0.0 0.0 0.00 0.00 0.00 91 1018.8
20260905105209 24 300 0.0 1.6 0.00 0.00 0.00 91 1018.8
20260905104704 24 305 0.0 0.0 0.00 0.00 0.00 91 1018.6
20260905104201 23 305 0.0 0.0 0.00 0.00 0.00 92 1018.6
20260905103655 23 305 0.0 1.6 0.00 0.00 0.00 92 1018.7
20260905103151 23 305 0.0 1.6 0.00 0.00 0.00 92 1018.7
20260905102647 23 304 0.0 0.0 0.00 0.00 0.00 92 1018.6
20260905102143 24 304 0.0 0.0 0.00 0.00 0.00 91 1018.6
20260905101641 24 304 0.0 0.0 0.00 0.00 0.00 91 1018.6